TAP301 TXKF-LPPD

Flight info

Callsign TAP301
Flight time N/A
Altitude 33000
Route SOMRR1 BALOO DCT 36N060W 38N056W 40N050W 41N045W 40N035W DCT KOKER H142 FRS H115 VMG
Aircraft A21N/M-SDE3FGHIRWY/LB1

Departure

Time 2026-04-25 16:30
Airport L.F. Wade International Airport (TXKF)

Arrival

Time N/A
Airport João Paulo II Airport (LPPD)
Time Latitude Longitude Altitude Speed Heading
2026-04-25 16:11 32.36206 -64.70260 21 ft 0 kts 247°
2026-04-25 16:17 32.36206 -64.70259 21 ft 0 kts 247°
2026-04-25 16:18 32.36207 -64.70255 21 ft 2 kts 247°
2026-04-25 16:18 32.36212 -64.70241 21 ft 0 kts 247°
2026-04-25 16:19 32.36217 -64.70229 21 ft 2 kts 239°
2026-04-25 16:19 32.36226 -64.70215 21 ft 2 kts 224°
2026-04-25 16:19 32.36238 -64.70203 21 ft 2 kts 211°
2026-04-25 16:20 32.36266 -64.70193 21 ft 2 kts 184°
2026-04-25 16:20 32.36281 -64.70193 21 ft 2 kts 170°
2026-04-25 16:20 32.36299 -64.70200 21 ft 0 kts 156°
2026-04-25 16:25 32.36275 -64.70169 21 ft 10 kts 104°
2026-04-25 16:25 32.36292 -64.70086 21 ft 21 kts 67°
2026-04-25 16:25 32.36395 -64.69797 21 ft 28 kts 66°
2026-04-25 16:25 32.36469 -64.69591 21 ft 29 kts 68°
2026-04-25 16:26 32.36548 -64.69367 21 ft 28 kts 66°
2026-04-25 16:26 32.36629 -64.69138 21 ft 31 kts 67°
2026-04-25 16:26 32.36711 -64.68882 21 ft 35 kts 89°
2026-04-25 16:26 32.36668 -64.68586 21 ft 37 kts 101°
2026-04-25 16:27 32.36614 -64.68275 21 ft 38 kts 101°
2026-04-25 16:27 32.36562 -64.67966 21 ft 33 kts 101°
2026-04-25 16:27 32.36517 -64.67706 21 ft 31 kts 102°
2026-04-25 16:27 32.36480 -64.67489 21 ft 23 kts 101°
2026-04-25 16:28 32.36445 -64.67275 21 ft 28 kts 100°
2026-04-25 16:28 32.36413 -64.67040 21 ft 29 kts 97°
2026-04-25 16:28 32.36367 -64.66816 21 ft 27 kts 103°
2026-04-25 16:28 32.36324 -64.66579 21 ft 31 kts 101°
2026-04-25 16:29 32.36254 -64.66350 21 ft 24 kts 136°
2026-04-25 16:29 32.36156 -64.66428 21 ft 16 kts 281°
2026-04-25 16:29 32.36172 -64.66519 21 ft 34 kts 282°
2026-04-25 16:29 32.36275 -64.67117 21 ft 112 kts 281°
2026-04-25 16:30 32.36476 -64.68294 24 ft 177 kts 283°
2026-04-25 16:30 32.36748 -64.69788 621 ft 189 kts 284°
2026-04-25 16:30 32.37023 -64.71261 1515 ft 186 kts 282°
2026-04-25 16:30 32.37271 -64.72718 2427 ft 185 kts 282°
2026-04-25 16:31 32.37528 -64.74260 3013 ft 201 kts 281°
2026-04-25 16:31 32.37810 -64.75937 3597 ft 218 kts 282°
2026-04-25 16:31 32.38185 -64.77740 4165 ft 238 kts 294°
2026-04-25 16:31 32.39191 -64.79362 4805 ft 255 kts 322°
2026-04-25 16:32 32.40787 -64.80248 5678 ft 262 kts 350°
2026-04-25 16:32 32.42586 -64.80181 6634 ft 265 kts
2026-04-25 16:32 32.44388 -64.79747 7518 ft 270 kts 11°
2026-04-25 16:32 32.46236 -64.79277 8375 ft 274 kts 11°
2026-04-25 16:33 32.48074 -64.78825 8975 ft 277 kts 11°
2026-04-25 16:33 32.50024 -64.78362 9291 ft 292 kts 11°
2026-04-25 16:33 32.52016 -64.77837 9842 ft 296 kts 19°
2026-04-25 16:33 32.53827 -64.76699 10411 ft 299 kts 39°
2026-04-25 16:34 32.55323 -64.74910 10707 ft 313 kts 50°
2026-04-25 16:34 32.56741 -64.72888 10973 ft 327 kts 51°
2026-04-25 16:34 32.58188 -64.70786 11230 ft 341 kts 51°
2026-04-25 16:34 32.59747 -64.68548 11487 ft 355 kts 50°
2026-04-25 16:35 32.61359 -64.66256 11734 ft 369 kts 50°
2026-04-25 16:35 32.63015 -64.63921 11973 ft 382 kts 50°
2026-04-25 16:35 32.64777 -64.61444 12218 ft 395 kts 50°
2026-04-25 16:35 32.66545 -64.58964 12641 ft 402 kts 50°
2026-04-25 16:36 32.68366 -64.56409 13233 ft 405 kts 50°
2026-04-25 16:36 32.68964 -64.55570 13424 ft 406 kts 50°
2026-04-25 16:36 32.72026 -64.51266 14340 ft 413 kts 50°
2026-04-25 16:36 32.73893 -64.48684 14885 ft 417 kts 49°
2026-04-25 16:37 32.75810 -64.46062 15434 ft 421 kts 49°
2026-04-25 16:37 32.77710 -64.43470 15974 ft 425 kts 49°
2026-04-25 16:37 32.79669 -64.40795 16547 ft 428 kts 49°
2026-04-25 16:37 32.81594 -64.38162 17076 ft 432 kts 49°
2026-04-25 16:38 32.83559 -64.35472 17595 ft 436 kts 49°
2026-04-25 16:38 32.85548 -64.32739 18107 ft 440 kts 50°
2026-04-25 16:38 32.87558 -64.29968 18609 ft 444 kts 50°
2026-04-25 16:38 32.89578 -64.27183 19104 ft 448 kts 50°
2026-04-25 16:39 32.91613 -64.24381 19578 ft 452 kts 49°
2026-04-25 16:39 32.93685 -64.21532 20056 ft 456 kts 49°
2026-04-25 16:39 32.95759 -64.18682 20512 ft 459 kts 49°